Погода в Палмеле

Португалия     38°34′17″N   8°54′06″W
темп.,
°C
ветер,
м/с
пор.,
м/с
влажн.,
%
обл.,
%
осадки,
мм/ч
давл.,
гПа
погр.,
м
28 ноября, вс
вс2800:00+10с410574 0.0 1021374
03:00+9ссз510655 0.0 1022470
06:00+9ссз510735 0.0 1023482
09:00+11с496777 0.0 10251129
12:00+14ссз61056100 0.0 10251743
15:00+15ссз7115380 0.0 10241591
18:00+13зсз61279100 0.1 1024987
21:00+12сз512905 0.0 1025583
29 ноября, пн
пн2900:00+13ссз6128618 0.1 1026697
03:00+11сз39913 0.0 1026313
06:00+11ссз410857 0.0 1025411
09:00+13сз49735 0.0 1027788
12:00+16ссз685421 0.0 10261436
15:00+16сз675414 0.0 10241405
18:00+11сз377422 0.0 1025236
21:00+10сз1276100 0.0 102552
30 ноября, вт
вт3000:00+12з116973 0.0 102442
03:00+10ссв118073 0.0 102431
06:00+10в228454 0.0 102444
09:00+11в227712 0.0 1025154
12:00+14в22655 0.0 1026502
15:00+15всв11615 0.0 1024697
18:00+12ссз11745 0.0 102527
21:00+10св22724 0.0 102648
1 декабря, ср
ср100:00+9св22770 0.0 102643
03:00+8ссв22800 0.0 102551
06:00+8ссв22815 0.0 102549
09:00+10с11696 0.0 102678
12:00+15зсз2452100 0.0 1025603
15:00+15зсз577244 0.0 1023707
18:00+14сз38916 0.1 1022426
21:00+12зсз3991100 0.0 1023363
2 декабря, чт
чт200:00+13сз5107599 0.1 1022804
03:00+12сз61177100 0.1 1021666
06:00+12сз7137137 0.1 1020855
09:00+13сз71470100 0.1 10201431
12:00+14ссз8136960 0.4 10211348
15:00+14ссз913538 0.1 10201649
18:00+11с713580 0.1 10221226
21:00+10с410690 0.0 1024507